If you wish to contribute or participate in the discussions about articles you are invited to join SKYbrary as a registered user

Dodge County

From SKYbrary Wiki
KUNU
Airport
ICAO: KUNU
Summary
Name Dodge County
Region North America
Territory United States US.gif
Location Juneau, Wisconsin
Main city served
Coordinates 43° 25' 35.5263", -88° 42' 0.7512"
AIP KUNU
Runways
Designator Length Width Surface
2/20 1227 m4,025.591 ft 23 m75.459 ft ASP
8/26 1542 m5,059.055 ft 30 m98.425 ft ASP
METAR
Observation KUNU 191215Z AUTO 10012G17KT 10SM CLR 08/M01 A2989 RMK AO2 T00811008
Station Juneau, Dodge County Airport
Date/Time 19 April 2015 12:15:00
Wind direction 100°
Wind speed 12 kts
Lowest cloud amount n/a
Temperature 8.1°C
Dew point
Humidity 53%
QNH hPa
Weather condition n/a

Dodge County Airport

ICAO: KUNU IATA: UNU

Description

Dodge County Airport is a public airport located north of Juneau, Wisconsin.

Climatology

Humid continental climate (Köppen climate classification Dfa) - characterized by four seasons: cold, windy, snowy winters, mild springs, hot, humid summers, and crisp and relatively short autumns. Precipitation reaches its lowest in January and February and peaks in summer and latter half of spring.

Maps

Terrain

Loading map...

Airport Layout

Loading map...


Accidents & Serious Incidents at or in vicinity of KUNU

None on SKYbrary